Year,Month,Day,Hour,Minute,Value (Times are PST for temperature in C)
2018,09,28,00,00,15.80
2018,09,28,00,01,15.70
2018,09,28,00,02,15.60
2018,09,28,00,03,15.50
2018,09,28,00,04,15.30
2018,09,28,00,05,15.30
2018,09,28,00,06,15.20
2018,09,28,00,07,15.20
2018,09,28,00,08,15.20
2018,09,28,00,09,15.20
2018,09,28,00,10,15.20
2018,09,28,00,11,15.30
2018,09,28,00,12,15.30
2018,09,28,00,13,15.30
2018,09,28,00,14,15.30
2018,09,28,00,15,15.40
2018,09,28,00,16,15.40
2018,09,28,00,17,15.50
2018,09,28,00,18,15.50
2018,09,28,00,19,15.60
2018,09,28,00,20,15.60
2018,09,28,00,21,15.60
2018,09,28,00,22,15.60
2018,09,28,00,23,15.60
2018,09,28,00,24,15.70
2018,09,28,00,25,15.70
2018,09,28,00,26,15.70
2018,09,28,00,27,15.60
2018,09,28,00,28,15.60
2018,09,28,00,29,15.50
2018,09,28,00,30,15.50
2018,09,28,00,31,15.40
2018,09,28,00,32,15.40
2018,09,28,00,33,15.40
2018,09,28,00,34,15.40
2018,09,28,00,35,15.40
2018,09,28,00,36,15.40
2018,09,28,00,37,15.40
2018,09,28,00,38,15.40
2018,09,28,00,39,15.40
2018,09,28,00,40,15.40
2018,09,28,00,41,15.30
2018,09,28,00,42,15.30
2018,09,28,00,43,15.20
2018,09,28,00,44,15.10
2018,09,28,00,45,15.00
2018,09,28,00,46,15.00
2018,09,28,00,47,15.00
2018,09,28,00,48,15.00
2018,09,28,00,49,15.00
2018,09,28,00,50,15.00
2018,09,28,00,51,15.00
2018,09,28,00,52,14.90
2018,09,28,00,53,14.80
2018,09,28,00,54,14.80
2018,09,28,00,55,14.80
2018,09,28,00,56,14.80
2018,09,28,00,57,14.80
2018,09,28,00,58,14.80
2018,09,28,00,59,14.80
2018,09,28,01,00,14.80
2018,09,28,01,01,14.80
2018,09,28,01,02,14.80
2018,09,28,01,03,14.80
2018,09,28,01,04,14.70
2018,09,28,01,05,14.70
2018,09,28,01,06,14.70
2018,09,28,01,07,14.70
2018,09,28,01,08,14.60
2018,09,28,01,09,14.60
2018,09,28,01,10,14.60
2018,09,28,01,11,14.50
2018,09,28,01,12,14.40
2018,09,28,01,13,14.40
2018,09,28,01,14,14.30
2018,09,28,01,15,14.30
2018,09,28,01,16,14.30
2018,09,28,01,17,14.30
2018,09,28,01,18,14.30
2018,09,28,01,19,14.20
2018,09,28,01,20,14.30
2018,09,28,01,21,14.30
2018,09,28,01,22,14.30
2018,09,28,01,23,14.40
2018,09,28,01,24,14.50
2018,09,28,01,25,14.60
2018,09,28,01,26,14.70
2018,09,28,01,27,14.70
2018,09,28,01,28,14.80
2018,09,28,01,29,14.90
2018,09,28,01,30,15.00
2018,09,28,01,31,15.00
2018,09,28,01,32,15.00
2018,09,28,01,33,15.00
2018,09,28,01,34,14.90
2018,09,28,01,35,14.90
2018,09,28,01,36,14.80
2018,09,28,01,37,14.70
2018,09,28,01,38,14.70
2018,09,28,01,39,14.70
2018,09,28,01,40,14.60
2018,09,28,01,41,14.60
2018,09,28,01,42,14.60
2018,09,28,01,43,14.60
2018,09,28,01,44,14.60
2018,09,28,01,45,14.60
2018,09,28,01,46,14.60
2018,09,28,01,47,14.60
2018,09,28,01,48,14.50
2018,09,28,01,49,14.50
2018,09,28,01,50,14.50
2018,09,28,01,51,14.40
2018,09,28,01,52,14.40
2018,09,28,01,53,14.40
2018,09,28,01,54,14.40
2018,09,28,01,55,14.50
2018,09,28,01,56,14.50
2018,09,28,01,57,14.60
2018,09,28,01,58,14.70
2018,09,28,01,59,14.70
2018,09,28,02,00,14.70
2018,09,28,02,01,14.60
2018,09,28,02,02,14.50
2018,09,28,02,03,14.50
2018,09,28,02,04,14.40
2018,09,28,02,05,14.30
2018,09,28,02,06,14.20
2018,09,28,02,07,14.20
2018,09,28,02,08,14.20
2018,09,28,02,09,14.10
2018,09,28,02,10,14.10
2018,09,28,02,11,14.10
2018,09,28,02,12,14.10
2018,09,28,02,13,14.10
2018,09,28,02,14,14.20
2018,09,28,02,15,14.20
2018,09,28,02,16,14.20
2018,09,28,02,17,14.20
2018,09,28,02,18,14.20
2018,09,28,02,19,14.20
2018,09,28,02,20,14.20
2018,09,28,02,21,14.20
2018,09,28,02,22,14.20
2018,09,28,02,23,14.20
2018,09,28,02,24,14.20
2018,09,28,02,25,14.30
2018,09,28,02,26,14.30
2018,09,28,02,27,14.30
2018,09,28,02,28,14.30
2018,09,28,02,29,14.20
2018,09,28,02,30,14.20
2018,09,28,02,31,14.20
2018,09,28,02,32,14.20
2018,09,28,02,33,14.20
2018,09,28,02,34,14.10
2018,09,28,02,35,14.10
2018,09,28,02,36,14.10
2018,09,28,02,37,14.00
2018,09,28,02,38,14.00
2018,09,28,02,39,13.90
2018,09,28,02,40,13.90
2018,09,28,02,41,13.80
2018,09,28,02,42,13.70
2018,09,28,02,43,13.60
2018,09,28,02,44,13.50
2018,09,28,02,45,13.40
2018,09,28,02,46,13.30
2018,09,28,02,47,13.20
2018,09,28,02,48,13.20
2018,09,28,02,49,13.10
2018,09,28,02,50,13.00
2018,09,28,02,51,12.90
2018,09,28,02,52,12.80
2018,09,28,02,53,12.80
2018,09,28,02,54,12.80
2018,09,28,02,55,12.70
2018,09,28,02,56,12.70
2018,09,28,02,57,12.70
2018,09,28,02,58,12.70
2018,09,28,02,59,12.60
2018,09,28,03,00,12.60
2018,09,28,03,01,12.60
2018,09,28,03,02,12.60
2018,09,28,03,03,12.60
2018,09,28,03,04,12.60
2018,09,28,03,05,12.60
2018,09,28,03,06,12.50
2018,09,28,03,07,12.50
2018,09,28,03,08,12.50
2018,09,28,03,09,12.50
2018,09,28,03,10,12.50
2018,09,28,03,11,12.60
2018,09,28,03,12,12.60
2018,09,28,03,13,12.60
2018,09,28,03,14,12.60
2018,09,28,03,15,12.70
2018,09,28,03,16,12.70
2018,09,28,03,17,12.60
2018,09,28,03,18,12.60
2018,09,28,03,19,12.60
2018,09,28,03,20,12.70
2018,09,28,03,21,12.70
2018,09,28,03,22,12.70
2018,09,28,03,23,12.80
2018,09,28,03,24,12.80
2018,09,28,03,25,12.80
2018,09,28,03,26,12.80
2018,09,28,03,27,12.80
2018,09,28,03,28,12.90
2018,09,28,03,29,12.90
2018,09,28,03,30,12.80
2018,09,28,03,31,12.80
2018,09,28,03,32,12.80
2018,09,28,03,33,12.80
2018,09,28,03,34,12.80
2018,09,28,03,35,12.80
2018,09,28,03,36,12.70
2018,09,28,03,37,12.70
2018,09,28,03,38,12.70
2018,09,28,03,39,12.70
2018,09,28,03,40,12.80
2018,09,28,03,41,12.80
2018,09,28,03,42,12.80
2018,09,28,03,43,12.80
2018,09,28,03,44,12.80
2018,09,28,03,45,12.80
2018,09,28,03,46,12.80
2018,09,28,03,47,12.80
2018,09,28,03,48,12.90
2018,09,28,03,49,12.90
2018,09,28,03,50,12.90
2018,09,28,03,51,12.90
2018,09,28,03,52,13.00
2018,09,28,03,53,13.00
2018,09,28,03,54,13.10
2018,09,28,03,55,13.10
2018,09,28,03,56,13.10
2018,09,28,03,57,13.10
2018,09,28,03,58,13.20
2018,09,28,03,59,13.20
2018,09,28,04,00,13.20
2018,09,28,04,01,13.30
2018,09,28,04,02,13.30
2018,09,28,04,03,13.30
2018,09,28,04,04,13.30
2018,09,28,04,05,13.40
2018,09,28,04,06,13.40
2018,09,28,04,07,13.50
2018,09,28,04,08,13.60
2018,09,28,04,09,13.60
2018,09,28,04,10,13.70
2018,09,28,04,11,13.70
2018,09,28,04,12,13.70
2018,09,28,04,13,13.60
2018,09,28,04,14,13.60
2018,09,28,04,15,13.50
2018,09,28,04,16,13.40
2018,09,28,04,17,13.30
2018,09,28,04,18,13.20
2018,09,28,04,19,13.20
2018,09,28,04,20,13.10
2018,09,28,04,21,13.00
2018,09,28,04,22,12.90
2018,09,28,04,23,12.90
2018,09,28,04,24,12.90
2018,09,28,04,25,12.80
2018,09,28,04,26,12.80
2018,09,28,04,27,12.80
2018,09,28,04,28,12.70
2018,09,28,04,29,12.70
2018,09,28,04,30,12.70
2018,09,28,04,31,12.60
2018,09,28,04,32,12.60
2018,09,28,04,33,12.60
2018,09,28,04,34,12.50
2018,09,28,04,35,12.50
2018,09,28,04,36,12.50
2018,09,28,04,37,12.50
2018,09,28,04,38,12.50
2018,09,28,04,39,12.50
2018,09,28,04,40,12.50
2018,09,28,04,41,12.60
2018,09,28,04,42,12.60
2018,09,28,04,43,12.60
2018,09,28,04,44,12.60
2018,09,28,04,45,12.50
2018,09,28,04,46,12.50
2018,09,28,04,47,12.40
2018,09,28,04,48,12.40
2018,09,28,04,49,12.30
2018,09,28,04,50,12.30
2018,09,28,04,51,12.30
2018,09,28,04,52,12.20
2018,09,28,04,53,12.20
2018,09,28,04,54,12.20
2018,09,28,04,55,12.20
2018,09,28,04,56,12.10
2018,09,28,04,57,12.10
2018,09,28,04,58,12.10
2018,09,28,04,59,12.10
2018,09,28,05,00,12.10
2018,09,28,05,01,12.10
2018,09,28,05,02,12.10
2018,09,28,05,03,12.10
2018,09,28,05,04,12.10
2018,09,28,05,05,12.20
2018,09,28,05,06,12.20
2018,09,28,05,07,12.20
2018,09,28,05,08,12.20
2018,09,28,05,09,12.20
2018,09,28,05,10,12.20
2018,09,28,05,11,12.20
2018,09,28,05,12,12.20
2018,09,28,05,13,12.20
2018,09,28,05,14,12.20
2018,09,28,05,15,12.20
2018,09,28,05,16,12.20
2018,09,28,05,17,12.20
2018,09,28,05,18,12.20
2018,09,28,05,19,12.30
2018,09,28,05,20,12.30
2018,09,28,05,21,12.30
2018,09,28,05,22,12.30
2018,09,28,05,23,12.30
2018,09,28,05,24,12.30
2018,09,28,05,25,12.30
2018,09,28,05,26,12.30
2018,09,28,05,27,12.30
2018,09,28,05,28,12.30
2018,09,28,05,29,12.30
2018,09,28,05,30,12.30
2018,09,28,05,31,12.30
2018,09,28,05,32,12.30
2018,09,28,05,33,12.30
2018,09,28,05,34,12.30
2018,09,28,05,35,12.30
2018,09,28,05,36,12.30
2018,09,28,05,37,12.30
2018,09,28,05,38,12.30
2018,09,28,05,39,12.30
2018,09,28,05,40,12.30
2018,09,28,05,41,12.30
2018,09,28,05,42,12.30
2018,09,28,05,43,12.30
2018,09,28,05,44,12.30
2018,09,28,05,45,12.30
2018,09,28,05,46,12.30
2018,09,28,05,47,12.20
2018,09,28,05,48,12.20
2018,09,28,05,49,12.20
2018,09,28,05,50,12.20
2018,09,28,05,51,12.20
2018,09,28,05,52,12.20
2018,09,28,05,53,12.10
2018,09,28,05,54,12.10
2018,09,28,05,55,12.10
2018,09,28,05,56,12.00
2018,09,28,05,57,12.00
2018,09,28,05,58,12.00
2018,09,28,05,59,11.90
2018,09,28,06,00,11.90
2018,09,28,06,01,11.90
2018,09,28,06,02,11.80
2018,09,28,06,03,11.80
2018,09,28,06,04,11.80
2018,09,28,06,05,11.80
2018,09,28,06,06,11.70
2018,09,28,06,07,11.70
2018,09,28,06,08,11.70
2018,09,28,06,09,11.70
2018,09,28,06,10,11.60
2018,09,28,06,11,11.60
2018,09,28,06,12,11.60
2018,09,28,06,13,11.50
2018,09,28,06,14,11.50
2018,09,28,06,15,11.50
2018,09,28,06,16,11.50
2018,09,28,06,17,11.50
2018,09,28,06,18,11.50
2018,09,28,06,19,11.50
2018,09,28,06,20,11.40
2018,09,28,06,21,11.40
2018,09,28,06,22,11.40
2018,09,28,06,23,11.40
2018,09,28,06,24,11.40
2018,09,28,06,25,11.50
2018,09,28,06,26,11.40
2018,09,28,06,27,11.50
2018,09,28,06,28,11.50
2018,09,28,06,29,11.50
2018,09,28,06,30,11.50
2018,09,28,06,31,11.50
2018,09,28,06,32,11.40
2018,09,28,06,33,11.40
2018,09,28,06,34,11.40
2018,09,28,06,35,11.40
2018,09,28,06,36,11.30
2018,09,28,06,37,11.30
2018,09,28,06,38,11.30
2018,09,28,06,39,11.30
2018,09,28,06,40,11.30
2018,09,28,06,41,11.30
2018,09,28,06,42,11.30
2018,09,28,06,43,11.30
2018,09,28,06,44,11.30
2018,09,28,06,45,11.40
2018,09,28,06,46,11.40
2018,09,28,06,47,11.40
2018,09,28,06,48,11.40
2018,09,28,06,49,11.40
2018,09,28,06,50,11.40
2018,09,28,06,51,11.30
2018,09,28,06,52,11.30
2018,09,28,06,53,11.30
2018,09,28,06,54,11.30
2018,09,28,06,55,11.30
2018,09,28,06,56,11.30
2018,09,28,06,57,11.30
2018,09,28,06,58,11.30
2018,09,28,06,59,11.30
2018,09,28,07,00,11.30
2018,09,28,07,01,11.30
2018,09,28,07,02,11.40
2018,09,28,07,03,11.40
2018,09,28,07,04,11.40
2018,09,28,07,05,11.50
2018,09,28,07,06,11.50
2018,09,28,07,07,11.50
2018,09,28,07,08,11.60
2018,09,28,07,09,11.50
2018,09,28,07,10,11.50
2018,09,28,07,11,11.50
2018,09,28,07,12,11.40
2018,09,28,07,13,11.40
2018,09,28,07,14,11.40
2018,09,28,07,15,11.30
2018,09,28,07,16,11.20
2018,09,28,07,17,11.20
2018,09,28,07,18,11.20
2018,09,28,07,19,11.20
2018,09,28,07,20,11.10
2018,09,28,07,21,11.10
2018,09,28,07,22,11.10
2018,09,28,07,23,11.10
2018,09,28,07,24,11.20
2018,09,28,07,25,11.20
2018,09,28,07,26,11.20
2018,09,28,07,27,11.20
2018,09,28,07,28,11.20
2018,09,28,07,29,11.20
2018,09,28,07,30,11.10
2018,09,28,07,31,11.10
2018,09,28,07,32,11.10
2018,09,28,07,33,11.10
2018,09,28,07,34,11.10
2018,09,28,07,35,11.10
2018,09,28,07,36,11.20
2018,09,28,07,37,11.20
2018,09,28,07,38,11.20
2018,09,28,07,39,11.30
2018,09,28,07,40,11.30
2018,09,28,07,41,11.40
2018,09,28,07,42,11.50
2018,09,28,07,43,11.60
2018,09,28,07,44,11.60
2018,09,28,07,45,11.70
2018,09,28,07,46,11.70
2018,09,28,07,47,11.80
2018,09,28,07,48,11.80
2018,09,28,07,49,11.80
2018,09,28,07,50,11.80
2018,09,28,07,51,11.80
2018,09,28,07,52,11.80
2018,09,28,07,53,11.80
2018,09,28,07,54,11.80
2018,09,28,07,55,11.80
2018,09,28,07,56,11.90
2018,09,28,07,57,11.90
2018,09,28,07,58,11.90
2018,09,28,07,59,12.00
2018,09,28,08,00,12.00
2018,09,28,08,01,12.10
2018,09,28,08,02,12.20
2018,09,28,08,03,12.20
2018,09,28,08,04,12.30
2018,09,28,08,05,12.40
2018,09,28,08,06,12.40
2018,09,28,08,07,12.40
2018,09,28,08,08,12.40
2018,09,28,08,09,12.40
2018,09,28,08,10,12.50
2018,09,28,08,11,12.50
2018,09,28,08,12,12.50
2018,09,28,08,13,12.50
2018,09,28,08,14,12.60
2018,09,28,08,15,12.60
2018,09,28,08,16,12.60
2018,09,28,08,17,12.70
2018,09,28,08,18,12.80
2018,09,28,08,19,12.80
2018,09,28,08,20,12.90
2018,09,28,08,21,13.00
2018,09,28,08,22,13.10
2018,09,28,08,23,13.30
2018,09,28,08,24,13.40
2018,09,28,08,25,13.50
2018,09,28,08,26,13.60
2018,09,28,08,27,13.80
2018,09,28,08,28,13.90
2018,09,28,08,29,14.00
2018,09,28,08,30,14.10
2018,09,28,08,31,14.10
2018,09,28,08,32,14.20
2018,09,28,08,33,14.30
2018,09,28,08,34,14.30
2018,09,28,08,35,14.30
2018,09,28,08,36,14.30
2018,09,28,08,37,14.30
2018,09,28,08,38,14.30
2018,09,28,08,39,14.30
2018,09,28,08,40,14.40
2018,09,28,08,41,14.40
2018,09,28,08,42,14.40
2018,09,28,08,43,14.40
2018,09,28,08,44,14.50
2018,09,28,08,45,14.50
2018,09,28,08,46,14.60
2018,09,28,08,47,14.60
2018,09,28,08,48,14.70
2018,09,28,08,49,14.70
2018,09,28,08,50,14.70
2018,09,28,08,51,14.70
2018,09,28,08,52,14.70
2018,09,28,08,53,14.70
2018,09,28,08,54,14.80
2018,09,28,08,55,14.80
2018,09,28,08,56,14.80
2018,09,28,08,57,14.80
2018,09,28,08,58,14.90
2018,09,28,08,59,14.90
2018,09,28,09,00,15.00
2018,09,28,09,01,15.00
2018,09,28,09,02,15.00
2018,09,28,09,03,15.00
2018,09,28,09,04,15.00
2018,09,28,09,05,15.10
2018,09,28,09,06,15.20
2018,09,28,09,07,15.40
2018,09,28,09,08,15.50
2018,09,28,09,09,15.70
2018,09,28,09,10,15.80
2018,09,28,09,11,15.90
2018,09,28,09,12,16.10
2018,09,28,09,13,16.20
2018,09,28,09,14,16.30
2018,09,28,09,15,16.40
2018,09,28,09,16,16.50
2018,09,28,09,17,16.60
2018,09,28,09,18,16.70
2018,09,28,09,19,16.80
2018,09,28,09,20,16.80
2018,09,28,09,21,16.90
2018,09,28,09,22,16.90
2018,09,28,09,23,17.00
2018,09,28,09,24,17.10
2018,09,28,09,25,17.20
2018,09,28,09,26,17.20
2018,09,28,09,27,17.30
2018,09,28,09,28,17.40
2018,09,28,09,29,17.40
2018,09,28,09,30,17.50
2018,09,28,09,31,17.50
2018,09,28,09,32,17.60
2018,09,28,09,33,17.70
2018,09,28,09,34,17.70
2018,09,28,09,35,17.70
2018,09,28,09,36,17.80
2018,09,28,09,37,17.80
2018,09,28,09,38,17.80
2018,09,28,09,39,17.80
2018,09,28,09,40,17.80
2018,09,28,09,41,17.80
2018,09,28,09,42,17.90
2018,09,28,09,43,17.90
2018,09,28,09,44,17.90
2018,09,28,09,45,18.00
2018,09,28,09,46,18.00
2018,09,28,09,47,18.10
2018,09,28,09,48,18.10
2018,09,28,09,49,18.20
2018,09,28,09,50,18.20
2018,09,28,09,51,18.30
2018,09,28,09,52,18.30
2018,09,28,09,53,18.40
2018,09,28,09,54,18.40
2018,09,28,09,55,18.40
2018,09,28,09,56,18.40
2018,09,28,09,57,18.40
2018,09,28,09,58,18.50
2018,09,28,09,59,18.50
2018,09,28,10,00,18.50
2018,09,28,10,01,18.60
2018,09,28,10,02,18.60
2018,09,28,10,03,18.70
2018,09,28,10,04,18.80
2018,09,28,10,05,18.80
2018,09,28,10,06,18.90
2018,09,28,10,07,18.90
2018,09,28,10,08,19.00
2018,09,28,10,09,19.00
2018,09,28,10,10,19.10
2018,09,28,10,11,19.10
2018,09,28,10,12,19.20
2018,09,28,10,13,19.20
2018,09,28,10,14,19.30
2018,09,28,10,15,19.30
2018,09,28,10,16,19.40
2018,09,28,10,17,19.50
2018,09,28,10,18,19.50
2018,09,28,10,19,19.60
2018,09,28,10,20,19.60
2018,09,28,10,21,19.60
2018,09,28,10,22,19.60
2018,09,28,10,23,19.70
2018,09,28,10,24,19.70
2018,09,28,10,25,19.70
2018,09,28,10,26,19.70
2018,09,28,10,27,19.80
2018,09,28,10,28,19.90
2018,09,28,10,29,19.90
2018,09,28,10,30,20.00
2018,09,28,10,31,20.10
2018,09,28,10,32,20.20
2018,09,28,10,33,20.30
2018,09,28,10,34,20.40
2018,09,28,10,35,20.40
2018,09,28,10,36,20.40
2018,09,28,10,37,20.40
2018,09,28,10,38,20.50
2018,09,28,10,39,20.40
2018,09,28,10,40,20.40
2018,09,28,10,41,20.30
2018,09,28,10,42,20.10
2018,09,28,10,43,20.00
2018,09,28,10,44,19.80
2018,09,28,10,45,19.70
2018,09,28,10,46,19.60
2018,09,28,10,47,19.50
2018,09,28,10,48,19.50
2018,09,28,10,49,19.50
2018,09,28,10,50,19.60
2018,09,28,10,51,19.60
2018,09,28,10,52,19.60
2018,09,28,10,53,19.60
2018,09,28,10,54,19.50
2018,09,28,10,55,19.50
2018,09,28,10,56,19.50
2018,09,28,10,57,19.50
2018,09,28,10,58,19.50
2018,09,28,10,59,19.50
2018,09,28,11,00,19.60
2018,09,28,11,01,19.70
2018,09,28,11,02,19.80
2018,09,28,11,03,19.80
2018,09,28,11,04,19.80
2018,09,28,11,05,19.80
2018,09,28,11,06,19.80
2018,09,28,11,07,19.70
2018,09,28,11,08,19.60
2018,09,28,11,09,19.60
2018,09,28,11,10,19.50
2018,09,28,11,11,19.50
2018,09,28,11,12,19.50
2018,09,28,11,13,19.60
2018,09,28,11,14,19.70
2018,09,28,11,15,19.80
2018,09,28,11,16,19.90
2018,09,28,11,17,20.00
2018,09,28,11,18,20.10
2018,09,28,11,19,20.20
2018,09,28,11,20,20.20
2018,09,28,11,21,20.20
2018,09,28,11,22,20.20
2018,09,28,11,23,20.20
2018,09,28,11,24,20.10
2018,09,28,11,25,20.10
2018,09,28,11,26,20.10
2018,09,28,11,27,20.10
2018,09,28,11,28,20.10
2018,09,28,11,29,20.10
2018,09,28,11,30,20.10
2018,09,28,11,31,20.20
2018,09,28,11,32,20.20
2018,09,28,11,33,20.20
2018,09,28,11,34,20.20
2018,09,28,11,35,20.20
2018,09,28,11,36,20.20
2018,09,28,11,37,20.30
2018,09,28,11,38,20.40
2018,09,28,11,39,20.50
2018,09,28,11,40,20.60
2018,09,28,11,41,20.70
2018,09,28,11,42,20.70
2018,09,28,11,43,20.70
2018,09,28,11,44,20.70
2018,09,28,11,45,20.70
2018,09,28,11,46,20.70
2018,09,28,11,47,20.70
2018,09,28,11,48,20.60
2018,09,28,11,49,20.60
2018,09,28,11,50,20.50
2018,09,28,11,51,20.50
2018,09,28,11,52,20.50
2018,09,28,11,53,20.60
2018,09,28,11,54,20.60
2018,09,28,11,55,20.70
2018,09,28,11,56,20.80
2018,09,28,11,57,20.80
2018,09,28,11,58,20.80
2018,09,28,11,59,20.80
2018,09,28,12,00,20.80
2018,09,28,12,01,20.80
2018,09,28,12,02,20.80
2018,09,28,12,03,20.80
2018,09,28,12,04,20.90
2018,09,28,12,05,20.90
2018,09,28,12,06,20.80
2018,09,28,12,07,20.80
2018,09,28,12,08,20.80
2018,09,28,12,09,20.80
2018,09,28,12,10,20.80
2018,09,28,12,11,20.70
2018,09,28,12,12,20.70
2018,09,28,12,13,20.70
2018,09,28,12,14,20.70
2018,09,28,12,15,20.80
2018,09,28,12,16,20.80
2018,09,28,12,17,20.90
2018,09,28,12,18,20.90
2018,09,28,12,19,20.90
2018,09,28,12,20,20.90
2018,09,28,12,21,20.80
2018,09,28,12,22,20.70
2018,09,28,12,23,20.70
2018,09,28,12,24,20.70
2018,09,28,12,25,20.60
2018,09,28,12,26,20.60
2018,09,28,12,27,20.60
2018,09,28,12,28,20.60
2018,09,28,12,29,20.60
2018,09,28,12,30,20.60
2018,09,28,12,31,20.60
2018,09,28,12,32,20.60
2018,09,28,12,33,20.60
2018,09,28,12,34,20.70
2018,09,28,12,35,20.70
2018,09,28,12,36,20.80
2018,09,28,12,37,20.80
2018,09,28,12,38,21.00
2018,09,28,12,39,21.10
2018,09,28,12,40,21.20
2018,09,28,12,41,21.30
2018,09,28,12,42,21.40
2018,09,28,12,43,21.40
2018,09,28,12,44,21.40
2018,09,28,12,45,21.40
2018,09,28,12,46,21.30
2018,09,28,12,47,21.30
2018,09,28,12,48,21.20
2018,09,28,12,49,21.20
2018,09,28,12,50,21.20
2018,09,28,12,51,21.40
2018,09,28,12,52,21.50
2018,09,28,12,53,21.60
2018,09,28,12,54,21.80
2018,09,28,12,55,21.80
2018,09,28,12,56,21.90
2018,09,28,12,57,21.80
2018,09,28,12,58,21.80
2018,09,28,12,59,21.80
2018,09,28,13,00,21.70
2018,09,28,13,01,21.70
2018,09,28,13,02,21.70
2018,09,28,13,03,21.70
2018,09,28,13,04,21.70
2018,09,28,13,05,21.60
2018,09,28,13,06,21.60
2018,09,28,13,07,21.60
2018,09,28,13,08,21.50
2018,09,28,13,09,21.40
2018,09,28,13,10,21.40
2018,09,28,13,11,21.40
2018,09,28,13,12,21.30
2018,09,28,13,13,21.30
2018,09,28,13,14,21.30
2018,09,28,13,15,21.30
2018,09,28,13,16,21.30
2018,09,28,13,17,21.20
2018,09,28,13,18,21.20
2018,09,28,13,19,21.20
2018,09,28,13,20,21.30
2018,09,28,13,21,21.30
2018,09,28,13,22,21.40
2018,09,28,13,23,21.50
2018,09,28,13,24,21.60
2018,09,28,13,25,21.70
2018,09,28,13,26,21.90
2018,09,28,13,27,22.00
2018,09,28,13,28,22.10
2018,09,28,13,29,22.20
2018,09,28,13,30,22.30
2018,09,28,13,31,22.40
2018,09,28,13,32,22.40
2018,09,28,13,33,22.40
2018,09,28,13,34,22.40
2018,09,28,13,35,22.30
2018,09,28,13,36,22.20
2018,09,28,13,37,22.20
2018,09,28,13,38,22.10
2018,09,28,13,39,21.90
2018,09,28,13,40,21.90
2018,09,28,13,41,21.80
2018,09,28,13,42,21.90
2018,09,28,13,43,21.90
2018,09,28,13,44,21.90
2018,09,28,13,45,21.90
2018,09,28,13,46,21.90
2018,09,28,13,47,22.00
2018,09,28,13,48,22.00
2018,09,28,13,49,22.00
2018,09,28,13,50,21.90
2018,09,28,13,51,21.90
2018,09,28,13,52,21.90
2018,09,28,13,53,21.90
2018,09,28,13,54,21.90
2018,09,28,13,55,22.00
2018,09,28,13,56,22.10
2018,09,28,13,57,22.10
2018,09,28,13,58,22.00
2018,09,28,13,59,22.00
2018,09,28,14,00,21.90
2018,09,28,14,01,21.80
2018,09,28,14,02,21.90
2018,09,28,14,03,21.90
2018,09,28,14,04,21.90
2018,09,28,14,05,22.00
2018,09,28,14,06,22.10
2018,09,28,14,07,22.10
2018,09,28,14,08,22.20
2018,09,28,14,09,22.10
2018,09,28,14,10,22.20
2018,09,28,14,11,22.20
2018,09,28,14,12,22.10
2018,09,28,14,13,22.10
2018,09,28,14,14,22.00
2018,09,28,14,15,21.90
2018,09,28,14,16,21.90
2018,09,28,14,17,21.90
2018,09,28,14,18,21.90
2018,09,28,14,19,21.90
2018,09,28,14,20,22.00
2018,09,28,14,21,22.10
2018,09,28,14,22,22.10
2018,09,28,14,23,22.20
2018,09,28,14,24,22.30
2018,09,28,14,25,22.30
2018,09,28,14,26,22.30
2018,09,28,14,27,22.30
2018,09,28,14,28,22.20
2018,09,28,14,29,22.20
2018,09,28,14,30,22.10
2018,09,28,14,31,22.10
2018,09,28,14,32,22.10
2018,09,28,14,33,22.20
2018,09,28,14,34,22.20
2018,09,28,14,35,22.20
2018,09,28,14,36,22.20
2018,09,28,14,37,22.20
2018,09,28,14,38,22.10
2018,09,28,14,39,22.10
2018,09,28,14,40,22.20
2018,09,28,14,41,22.20
2018,09,28,14,42,22.20
2018,09,28,14,43,22.10
2018,09,28,14,44,22.10
2018,09,28,14,45,22.10
2018,09,28,14,46,22.10
2018,09,28,14,47,22.20
2018,09,28,14,48,22.30
2018,09,28,14,49,22.40
2018,09,28,14,50,22.50
2018,09,28,14,51,22.50
2018,09,28,14,52,22.50
2018,09,28,14,53,22.60
2018,09,28,14,54,22.50
2018,09,28,14,55,22.40
2018,09,28,14,56,22.30
2018,09,28,14,57,22.30
2018,09,28,14,58,22.30
2018,09,28,14,59,22.30
2018,09,28,15,00,22.30
2018,09,28,15,01,22.30
2018,09,28,15,02,22.30
2018,09,28,15,03,22.30
2018,09,28,15,04,22.30
2018,09,28,15,05,22.30
2018,09,28,15,06,22.30
2018,09,28,15,07,22.30
2018,09,28,15,08,22.40
2018,09,28,15,09,22.50
2018,09,28,15,10,22.50
2018,09,28,15,11,22.60
2018,09,28,15,12,22.60
2018,09,28,15,13,22.70
2018,09,28,15,14,22.60
2018,09,28,15,15,22.60
2018,09,28,15,16,22.50
2018,09,28,15,17,22.40
2018,09,28,15,18,22.40
2018,09,28,15,19,22.30
2018,09,28,15,20,22.30
2018,09,28,15,21,22.30
2018,09,28,15,22,22.40
2018,09,28,15,23,22.40
2018,09,28,15,24,22.30
2018,09,28,15,25,22.30
2018,09,28,15,26,22.30
2018,09,28,15,27,22.30
2018,09,28,15,28,22.30
2018,09,28,15,29,22.30
2018,09,28,15,30,22.30
2018,09,28,15,31,22.30
2018,09,28,15,32,22.30
2018,09,28,15,33,22.20
2018,09,28,15,34,22.20
2018,09,28,15,35,22.20
2018,09,28,15,36,22.20
2018,09,28,15,37,22.30
2018,09,28,15,38,22.30
2018,09,28,15,39,22.30
2018,09,28,15,40,22.30
2018,09,28,15,41,22.30
2018,09,28,15,42,22.30
2018,09,28,15,43,22.30
2018,09,28,15,44,22.30
2018,09,28,15,45,22.30
2018,09,28,15,46,22.30
2018,09,28,15,47,22.30
2018,09,28,15,48,22.30
2018,09,28,15,49,22.20
2018,09,28,15,50,22.20
2018,09,28,15,51,22.20
2018,09,28,15,52,22.20
2018,09,28,15,53,22.30
2018,09,28,15,54,22.30
2018,09,28,15,55,22.30
2018,09,28,15,56,22.40
2018,09,28,15,57,22.40
2018,09,28,15,58,22.50
2018,09,28,15,59,22.50
2018,09,28,16,00,22.50
2018,09,28,16,01,22.50
2018,09,28,16,02,22.50
2018,09,28,16,03,22.50
2018,09,28,16,04,22.50
2018,09,28,16,05,22.50
2018,09,28,16,06,22.50
2018,09,28,16,07,22.50
2018,09,28,16,08,22.50
2018,09,28,16,09,22.60
2018,09,28,16,10,22.60
2018,09,28,16,11,22.60
2018,09,28,16,12,22.60
2018,09,28,16,13,22.60
2018,09,28,16,14,22.70
2018,09,28,16,15,22.70
2018,09,28,16,16,22.70
2018,09,28,16,17,22.60
2018,09,28,16,18,22.60
2018,09,28,16,19,22.70
2018,09,28,16,20,22.70
2018,09,28,16,21,22.80
2018,09,28,16,22,22.80
2018,09,28,16,23,22.80
2018,09,28,16,24,22.70
2018,09,28,16,25,22.60
2018,09,28,16,26,22.60
2018,09,28,16,27,22.60
2018,09,28,16,28,22.50
2018,09,28,16,29,22.40
2018,09,28,16,30,22.40
2018,09,28,16,31,22.30
2018,09,28,16,32,22.30
2018,09,28,16,33,22.30
2018,09,28,16,34,22.20
2018,09,28,16,35,22.20
2018,09,28,16,36,22.10
2018,09,28,16,37,22.10
2018,09,28,16,38,22.10
2018,09,28,16,39,22.00
2018,09,28,16,40,21.90
2018,09,28,16,41,21.90
2018,09,28,16,42,21.80
2018,09,28,16,43,21.80
2018,09,28,16,44,21.80
2018,09,28,16,45,21.80
2018,09,28,16,46,21.80
2018,09,28,16,47,21.90
2018,09,28,16,48,21.90
2018,09,28,16,49,21.90
2018,09,28,16,50,22.00
2018,09,28,16,51,22.10
2018,09,28,16,52,22.10
2018,09,28,16,53,22.10
2018,09,28,16,54,22.10
2018,09,28,16,55,22.10
2018,09,28,16,56,22.10
2018,09,28,16,57,22.20
2018,09,28,16,58,22.20
2018,09,28,16,59,22.10
2018,09,28,17,00,22.10
2018,09,28,17,01,22.10
2018,09,28,17,02,22.20
2018,09,28,17,03,22.20
2018,09,28,17,04,22.30
2018,09,28,17,05,22.30
2018,09,28,17,06,22.30
2018,09,28,17,07,22.30
2018,09,28,17,08,22.30
2018,09,28,17,09,22.30
2018,09,28,17,10,22.20
2018,09,28,17,11,22.20
2018,09,28,17,12,22.20
2018,09,28,17,13,22.20
2018,09,28,17,14,22.20
2018,09,28,17,15,22.10
2018,09,28,17,16,22.10
2018,09,28,17,17,22.10
2018,09,28,17,18,22.10
2018,09,28,17,19,22.20